SVA1050 OEJN-OERK

Flight info

Callsign SVA1050
Flight time 1h 14m
Altitude 35000
Route EGREP T532 ORDEM
Aircraft A320/M-SDE3FGHIRWY/LB1

Departure

Time 2026-04-27 20:13
Airport King Abdulaziz International Airport (OEJN)

Arrival

Time 2026-04-27 21:27
Airport King Khalid International Airport (OERK)
Time Latitude Longitude Altitude Speed Heading
2026-04-27 19:52 21.66532 39.17097 36 ft 0 kts 79°
2026-04-27 20:04 21.66532 39.17096 35 ft 1 kts 79°
2026-04-27 20:04 21.66529 39.17079 35 ft 3 kts 79°
2026-04-27 20:04 21.66527 39.17065 35 ft 3 kts 79°
2026-04-27 20:05 21.66522 39.17037 33 ft 3 kts 79°
2026-04-27 20:05 21.66519 39.17018 35 ft 3 kts 91°
2026-04-27 20:05 21.66522 39.17000 34 ft 3 kts 135°
2026-04-27 20:05 21.66537 39.16990 34 ft 2 kts 163°
2026-04-27 20:06 21.66546 39.16987 35 ft 1 kts 165°
2026-04-27 20:10 21.66528 39.16992 35 ft 6 kts 165°
2026-04-27 20:10 21.66474 39.17005 35 ft 10 kts 176°
2026-04-27 20:10 21.66415 39.16967 35 ft 14 kts 240°
2026-04-27 20:11 21.66378 39.16863 35 ft 14 kts 250°
2026-04-27 20:11 21.66350 39.16779 34 ft 9 kts 250°
2026-04-27 20:11 21.66324 39.16705 36 ft 12 kts 250°
2026-04-27 20:11 21.66289 39.16605 35 ft 16 kts 249°
2026-04-27 20:12 21.66255 39.16507 33 ft 16 kts 249°
2026-04-27 20:12 21.66272 39.16434 33 ft 17 kts 320°
2026-04-27 20:12 21.66470 39.16347 35 ft 47 kts 340°
2026-04-27 20:12 21.67001 39.16141 34 ft 112 kts 340°
2026-04-27 20:13 21.67903 39.15787 31 ft 162 kts 340°
2026-04-27 20:13 21.68990 39.15361 536 ft 168 kts 340°
2026-04-27 20:13 21.70107 39.14927 1153 ft 171 kts 342°
2026-04-27 20:13 21.71211 39.14498 1853 ft 170 kts 342°
2026-04-27 20:14 21.72348 39.14052 2269 ft 183 kts 342°
2026-04-27 20:14 21.73619 39.13549 2460 ft 207 kts 341°
2026-04-27 20:14 21.75040 39.12985 2820 ft 226 kts 340°
2026-04-27 20:14 21.76575 39.12376 3271 ft 244 kts 340°
2026-04-27 20:15 21.78235 39.11843 3705 ft 254 kts 353°
2026-04-27 20:15 21.79415 39.11882 3991 ft 260 kts 10°
2026-04-27 20:15 21.81061 39.12714 4433 ft 268 kts 39°
2026-04-27 20:15 21.82413 39.14116 4872 ft 273 kts 44°
2026-04-27 20:16 21.83761 39.15572 5304 ft 276 kts 44°
2026-04-27 20:16 21.85131 39.17056 5742 ft 281 kts 44°
2026-04-27 20:16 21.86518 39.18555 6181 ft 285 kts 45°
2026-04-27 20:16 21.87927 39.20077 6607 ft 289 kts 45°
2026-04-27 20:17 21.89354 39.21618 7031 ft 292 kts 44°
2026-04-27 20:17 21.90792 39.23171 7458 ft 294 kts 44°
2026-04-27 20:17 21.92244 39.24737 7892 ft 296 kts 44°
2026-04-27 20:17 21.93709 39.26315 8345 ft 299 kts 44°
2026-04-27 20:18 21.95196 39.27916 8843 ft 304 kts 44°
2026-04-27 20:18 21.96703 39.29534 9347 ft 307 kts 44°
2026-04-27 20:18 21.98223 39.31170 9854 ft 311 kts 44°
2026-04-27 20:18 21.99772 39.32839 10323 ft 320 kts 44°
2026-04-27 20:19 22.01355 39.34547 10794 ft 331 kts 44°
2026-04-27 20:19 22.03008 39.36333 11267 ft 341 kts 44°
2026-04-27 20:19 22.04711 39.38170 11757 ft 352 kts 44°
2026-04-27 20:19 22.06463 39.40063 12266 ft 361 kts 44°
2026-04-27 20:20 22.08259 39.42009 12770 ft 370 kts 44°
2026-04-27 20:20 22.10096 39.43997 13280 ft 378 kts 44°
2026-04-27 20:20 22.11977 39.46030 13788 ft 386 kts 44°
2026-04-27 20:20 22.13895 39.48102 14244 ft 393 kts 44°
2026-04-27 20:21 22.15844 39.50205 14729 ft 400 kts 44°
2026-04-27 20:21 22.17799 39.52319 15199 ft 406 kts 44°
2026-04-27 20:21 22.19803 39.54488 15680 ft 411 kts 43°
2026-04-27 20:21 22.21861 39.56717 16171 ft 416 kts 43°
2026-04-27 20:22 22.23888 39.58915 16672 ft 421 kts 43°
2026-04-27 20:22 22.25972 39.61176 17167 ft 427 kts 43°
2026-04-27 20:22 22.28076 39.63462 17676 ft 431 kts 43°
2026-04-27 20:22 22.30198 39.65767 18197 ft 435 kts 43°
2026-04-27 20:23 22.32339 39.68094 18679 ft 438 kts 43°
2026-04-27 20:23 22.34498 39.70441 19133 ft 441 kts 43°
2026-04-27 20:23 22.36673 39.72807 19592 ft 445 kts 42°
2026-04-27 20:23 22.38856 39.75183 20061 ft 447 kts 43°
2026-04-27 20:24 22.41055 39.77575 20566 ft 450 kts 43°
2026-04-27 20:24 22.43268 39.79980 21044 ft 452 kts 43°
2026-04-27 20:24 22.45486 39.82397 21521 ft 454 kts 43°
2026-04-27 20:24 22.47726 39.84795 22018 ft 453 kts 41°
2026-04-27 20:25 22.50043 39.87109 22550 ft 455 kts 39°
2026-04-27 20:25 22.52428 39.89365 23079 ft 456 kts 38°
2026-04-27 20:25 22.54831 39.91583 23597 ft 458 kts 38°
2026-04-27 20:25 22.57266 39.93823 24040 ft 459 kts 37°
2026-04-27 20:26 22.59694 39.96080 24492 ft 460 kts 38°
2026-04-27 20:26 22.62080 39.98329 24944 ft 461 kts 38°
2026-04-27 20:26 22.64481 40.00623 25403 ft 461 kts 38°
2026-04-27 20:26 22.66878 40.02932 25869 ft 461 kts 38°
2026-04-27 20:27 22.69267 40.05241 26345 ft 460 kts 38°
2026-04-27 20:27 22.71663 40.07547 26842 ft 459 kts 37°
2026-04-27 20:27 22.74053 40.09842 27333 ft 458 kts 37°
2026-04-27 20:27 22.76439 40.12127 27842 ft 457 kts 37°
2026-04-27 20:28 22.78817 40.14404 28350 ft 455 kts 37°
2026-04-27 20:28 22.81183 40.16671 28868 ft 453 kts 36°
2026-04-27 20:28 22.83539 40.18931 29393 ft 450 kts 36°
2026-04-27 20:28 22.85090 40.20420 29751 ft 449 kts 36°
2026-04-27 20:29 22.88170 40.23383 30402 ft 445 kts 36°
2026-04-27 20:29 22.90478 40.25605 30875 ft 441 kts 35°
2026-04-27 20:29 22.92769 40.27810 31333 ft 437 kts 35°
2026-04-27 20:29 22.95030 40.29988 31788 ft 433 kts 35°
2026-04-27 20:30 22.97274 40.32150 32209 ft 431 kts 34°
2026-04-27 20:30 22.99554 40.34335 32044 ft 445 kts 34°
2026-04-27 20:30 23.04270 40.38858 32234 ft 458 kts 35°
2026-04-27 20:31 23.06634 40.41140 32356 ft 463 kts 35°
2026-04-27 20:31 23.09056 40.43479 32497 ft 468 kts 34°
2026-04-27 20:31 23.11508 40.45846 32621 ft 473 kts 35°
2026-04-27 20:31 23.13976 40.48231 32725 ft 477 kts 35°
2026-04-27 20:32 23.16465 40.50638 32847 ft 481 kts 35°
2026-04-27 20:32 23.18978 40.53065 32971 ft 485 kts 35°
2026-04-27 20:32 23.21511 40.55513 33096 ft 489 kts 35°
2026-04-27 20:32 23.24050 40.58000 33213 ft 495 kts 38°
2026-04-27 20:33 23.26369 40.60822 33338 ft 506 kts 48°
2026-04-27 20:33 23.28317 40.64044 33488 ft 515 kts 57°
2026-04-27 20:33 23.29846 40.67591 33616 ft 522 kts 66°
2026-04-27 20:33 23.31135 40.71293 33745 ft 525 kts 66°
2026-04-27 20:34 23.32432 40.75014 33874 ft 527 kts 66°
2026-04-27 20:34 23.33732 40.78750 34004 ft 529 kts 66°
2026-04-27 20:34 23.35039 40.82508 34111 ft 532 kts 66°
2026-04-27 20:34 23.36349 40.86282 34216 ft 533 kts 66°
2026-04-27 20:35 23.37663 40.90071 34330 ft 535 kts 66°
2026-04-27 20:35 23.38976 40.93866 34442 ft 536 kts 66°
2026-04-27 20:35 23.40288 40.97664 34607 ft 536 kts 66°
2026-04-27 20:35 23.41580 41.01412 34754 ft 537 kts 66°
2026-04-27 20:36 23.42892 41.05217 34908 ft 536 kts 66°
2026-04-27 20:36 23.44208 41.09024 34984 ft 538 kts 66°
2026-04-27 20:36 23.46841 41.16670 34989 ft 539 kts 66°
2026-04-27 20:37 23.49468 41.24319 34988 ft 539 kts 67°
2026-04-27 20:37 23.52095 41.31965 34982 ft 538 kts 66°
2026-04-27 20:38 23.54715 41.39621 34983 ft 540 kts 67°
2026-04-27 20:38 23.57352 41.47302 34983 ft 541 kts 66°
2026-04-27 20:39 23.59989 41.54990 34985 ft 541 kts 67°
2026-04-27 20:39 23.62612 41.62684 34979 ft 541 kts 67°
2026-04-27 20:40 23.65200 41.70324 34983 ft 541 kts 67°
2026-04-27 20:40 23.67802 41.78036 34974 ft 542 kts 68°
2026-04-27 20:41 23.70309 41.85794 34969 ft 542 kts 69°
2026-04-27 20:41 23.72740 41.93587 34970 ft 543 kts 69°
2026-04-27 20:42 23.75197 42.01383 34955 ft 542 kts 68°
2026-04-27 20:42 23.77819 42.09106 34970 ft 542 kts 66°
2026-04-27 20:43 23.80518 42.16781 34973 ft 541 kts 66°
2026-04-27 20:43 23.83182 42.24471 34978 ft 541 kts 67°
2026-04-27 20:44 23.85784 42.32173 34992 ft 540 kts 67°
2026-04-27 20:44 23.88377 42.39877 34981 ft 540 kts 67°
2026-04-27 20:45 23.90986 42.47574 34993 ft 540 kts 67°
2026-04-27 20:45 23.93586 42.55234 34994 ft 541 kts 67°
2026-04-27 20:46 23.96192 42.62945 34971 ft 540 kts 67°
2026-04-27 20:46 23.98791 42.70659 34975 ft 540 kts 67°
2026-04-27 20:47 24.01379 42.78366 35003 ft 540 kts 68°
2026-04-27 20:47 24.03976 42.86094 34979 ft 541 kts 68°
2026-04-27 20:48 24.06130 42.92525 34981 ft 542 kts 68°
2026-04-27 20:48 24.09116 43.01608 34970 ft 543 kts 68°
2026-04-27 20:49 24.11635 43.09329 34972 ft 542 kts 68°
2026-04-27 20:49 24.14179 43.17097 34977 ft 542 kts 68°
2026-04-27 20:50 24.16731 43.24875 34950 ft 543 kts 68°
2026-04-27 20:50 24.19282 43.32670 34961 ft 543 kts 68°
2026-04-27 20:51 24.21823 43.40466 34961 ft 543 kts 68°
2026-04-27 20:51 24.24361 43.48255 34979 ft 543 kts 69°
2026-04-27 20:52 24.26899 43.56052 34959 ft 543 kts 68°
2026-04-27 20:52 24.29436 43.63854 34955 ft 544 kts 69°
2026-04-27 20:53 24.31949 43.71632 34962 ft 544 kts 69°
2026-04-27 20:53 24.34470 43.79459 34976 ft 544 kts 69°
2026-04-27 20:54 24.38263 43.91216 34972 ft 545 kts 69°
2026-04-27 20:55 24.40774 43.99056 34975 ft 545 kts 69°
2026-04-27 20:55 24.43282 44.06903 34962 ft 544 kts 69°
2026-04-27 20:56 24.45414 44.14870 34973 ft 545 kts 79°
2026-04-27 20:56 24.46828 44.22999 34950 ft 545 kts 79°
2026-04-27 20:57 24.48244 44.31176 34964 ft 545 kts 79°
2026-04-27 20:57 24.49661 44.39357 34965 ft 544 kts 79°
2026-04-27 20:57 24.50362 44.43391 34855 ft 531 kts 79°
2026-04-27 20:58 24.51047 44.47338 34559 ft 522 kts 78°
2026-04-27 20:58 24.52016 44.51137 34217 ft 512 kts 65°
2026-04-27 20:58 24.53386 44.54724 33999 ft 508 kts 65°
2026-04-27 20:58 24.54756 44.58300 33723 ft 507 kts 65°
2026-04-27 20:59 24.56119 44.61860 33426 ft 504 kts 65°
2026-04-27 20:59 24.57475 44.65396 33152 ft 501 kts 65°
2026-04-27 20:59 24.58828 44.68920 32875 ft 498 kts 65°
2026-04-27 20:59 24.60185 44.72446 32600 ft 508 kts 65°
2026-04-27 21:00 24.61584 44.76072 32328 ft 523 kts 66°
2026-04-27 21:00 24.63023 44.79801 32056 ft 537 kts 66°
2026-04-27 21:00 24.64494 44.83622 31814 ft 548 kts 66°
2026-04-27 21:00 24.65993 44.87530 31546 ft 557 kts 66°
2026-04-27 21:01 24.67503 44.91481 31342 ft 562 kts 67°
2026-04-27 21:01 24.70491 44.99316 31065 ft 550 kts 67°
2026-04-27 21:01 24.71968 45.03185 30798 ft 548 kts 66°
2026-04-27 21:02 24.73421 45.06990 30547 ft 546 kts 67°
2026-04-27 21:02 24.74889 45.10840 30294 ft 544 kts 67°
2026-04-27 21:02 24.76354 45.14686 30036 ft 543 kts 67°
2026-04-27 21:02 24.77812 45.18515 29741 ft 542 kts 67°
2026-04-27 21:03 24.78773 45.21045 29556 ft 541 kts 67°
2026-04-27 21:03 24.80221 45.24862 29256 ft 539 kts 68°
2026-04-27 21:03 24.81663 45.28672 28961 ft 538 kts 67°
2026-04-27 21:03 24.83103 45.32474 28676 ft 537 kts 68°
2026-04-27 21:04 24.84538 45.36270 28389 ft 536 kts 68°
2026-04-27 21:04 24.85969 45.40060 28098 ft 536 kts 68°
2026-04-27 21:04 24.87404 45.43855 27812 ft 537 kts 67°
2026-04-27 21:04 24.88838 45.47649 27537 ft 537 kts 67°
2026-04-27 21:05 24.90272 45.51450 27262 ft 537 kts 67°
2026-04-27 21:05 24.91704 45.55244 26987 ft 536 kts 67°
2026-04-27 21:05 24.93140 45.59052 26723 ft 536 kts 67°
2026-04-27 21:05 24.94550 45.62796 26459 ft 535 kts 67°
2026-04-27 21:06 24.95977 45.66592 26195 ft 535 kts 67°
2026-04-27 21:06 24.97396 45.70375 25943 ft 535 kts 67°
2026-04-27 21:06 24.98816 45.74162 25673 ft 534 kts 67°
2026-04-27 21:06 25.00234 45.77950 25413 ft 534 kts 67°
2026-04-27 21:07 25.01651 45.81731 25149 ft 533 kts 67°
2026-04-27 21:07 25.03074 45.85524 24580 ft 538 kts 67°
2026-04-27 21:07 25.04509 45.89347 23999 ft 541 kts 67°
2026-04-27 21:07 25.05947 45.93187 23416 ft 542 kts 67°
2026-04-27 21:08 25.07385 45.97038 22729 ft 542 kts 68°
2026-04-27 21:08 25.08819 46.00890 22069 ft 542 kts 68°
2026-04-27 21:08 25.10238 46.04707 21768 ft 535 kts 68°
2026-04-27 21:08 25.11642 46.08484 21447 ft 529 kts 68°
2026-04-27 21:09 25.13035 46.12228 21112 ft 525 kts 68°
2026-04-27 21:09 25.14412 46.15940 20714 ft 521 kts 68°
2026-04-27 21:09 25.15790 46.19656 20223 ft 521 kts 68°
2026-04-27 21:09 25.17135 46.23283 20023 ft 514 kts 68°
2026-04-27 21:10 25.18485 46.26920 19775 ft 509 kts 68°
2026-04-27 21:10 25.19822 46.30531 19512 ft 506 kts 68°
2026-04-27 21:10 25.21151 46.34123 19259 ft 503 kts 68°
2026-04-27 21:10 25.22469 46.37688 18987 ft 498 kts 69°
2026-04-27 21:11 25.23786 46.41256 18307 ft 505 kts 69°
2026-04-27 21:11 25.25179 46.44782 18187 ft 498 kts 62°
2026-04-27 21:11 25.27114 46.47845 17450 ft 476 kts 46°
2026-04-27 21:11 25.29608 46.50103 16649 ft 453 kts 28°
2026-04-27 21:12 25.32448 46.51410 15870 ft 433 kts 10°
2026-04-27 21:12 25.35380 46.51703 15105 ft 417 kts 352°
2026-04-27 21:12 25.38159 46.51005 14360 ft 405 kts 335°
2026-04-27 21:12 25.40730 46.49875 13630 ft 402 kts 333°
2026-04-27 21:13 25.43299 46.48695 12815 ft 398 kts 333°
2026-04-27 21:13 25.45843 46.47515 12021 ft 394 kts 333°
2026-04-27 21:13 25.48357 46.46340 11248 ft 390 kts 333°
2026-04-27 21:13 25.50846 46.45171 10486 ft 387 kts 333°
2026-04-27 21:14 25.53197 46.43839 9738 ft 370 kts 321°
2026-04-27 21:14 25.55041 46.41968 8934 ft 351 kts 304°
2026-04-27 21:14 25.56277 46.39714 8161 ft 336 kts 289°
2026-04-27 21:14 25.56888 46.37282 7395 ft 323 kts 274°
2026-04-27 21:15 25.56900 46.34841 6641 ft 312 kts 259°
2026-04-27 21:15 25.56367 46.32577 6192 ft 294 kts 246°
2026-04-27 21:15 25.55455 46.30663 6048 ft 273 kts 234°
2026-04-27 21:15 25.54245 46.29074 6022 ft 268 kts 222°
2026-04-27 21:16 25.52769 46.27819 6029 ft 268 kts 210°
2026-04-27 21:16 25.51107 46.26954 6025 ft 268 kts 199°
2026-04-27 21:16 25.49294 46.26501 6026 ft 268 kts 187°
2026-04-27 21:16 25.47427 46.26495 6026 ft 270 kts 175°
2026-04-27 21:17 25.45585 46.26940 6024 ft 273 kts 163°
2026-04-27 21:17 25.43858 46.27826 6024 ft 275 kts 150°
2026-04-27 21:17 25.42339 46.29119 6024 ft 278 kts 138°
2026-04-27 21:17 25.41040 46.30707 6022 ft 274 kts 134°
2026-04-27 21:18 25.39848 46.32215 6018 ft 246 kts 134°
2026-04-27 21:18 25.38727 46.33624 6026 ft 251 kts 135°
2026-04-27 21:18 25.37539 46.35104 6026 ft 261 kts 135°
2026-04-27 21:18 25.36328 46.36612 6026 ft 263 kts 134°
2026-04-27 21:19 25.35117 46.38124 6022 ft 263 kts 134°
2026-04-27 21:19 25.33899 46.39641 6022 ft 264 kts 134°
2026-04-27 21:19 25.32683 46.41159 6023 ft 264 kts 134°
2026-04-27 21:20 25.30223 46.44224 6021 ft 268 kts 135°
2026-04-27 21:20 25.28985 46.45766 6024 ft 268 kts 135°
2026-04-27 21:20 25.27763 46.47290 6021 ft 268 kts 135°
2026-04-27 21:20 25.26459 46.48751 6020 ft 266 kts 145°
2026-04-27 21:21 25.24927 46.49870 6019 ft 264 kts 153°
2026-04-27 21:21 25.23327 46.50856 6018 ft 263 kts 154°
2026-04-27 21:21 25.21730 46.51853 6017 ft 263 kts 153°
2026-04-27 21:21 25.20141 46.52863 6016 ft 263 kts 153°
2026-04-27 21:22 25.18617 46.53836 6005 ft 240 kts 153°
2026-04-27 21:22 25.17220 46.54726 6012 ft 227 kts 154°
2026-04-27 21:22 25.15858 46.55589 5996 ft 225 kts 154°
2026-04-27 21:22 25.14498 46.56451 5783 ft 224 kts 153°
2026-04-27 21:23 25.13156 46.57304 5514 ft 223 kts 154°
2026-04-27 21:23 25.11812 46.58157 5236 ft 223 kts 154°
2026-04-27 21:23 25.10472 46.59007 4970 ft 220 kts 154°
2026-04-27 21:23 25.09167 46.59837 4693 ft 212 kts 154°
2026-04-27 21:24 25.07956 46.60607 4421 ft 193 kts 154°
2026-04-27 21:24 25.06841 46.61314 4185 ft 177 kts 154°
2026-04-27 21:24 25.05810 46.61968 3992 ft 166 kts 154°
2026-04-27 21:24 25.04825 46.62591 3775 ft 160 kts 154°
2026-04-27 21:25 25.03864 46.63199 3571 ft 159 kts 154°
2026-04-27 21:25 25.02909 46.63804 3374 ft 158 kts 154°
2026-04-27 21:25 25.01959 46.64406 3179 ft 157 kts 153°
2026-04-27 21:25 25.01011 46.65007 2984 ft 156 kts 153°
2026-04-27 21:26 25.00066 46.65605 2779 ft 157 kts 151°
2026-04-27 21:26 24.99122 46.66203 2568 ft 156 kts 150°
2026-04-27 21:26 24.98185 46.66796 2360 ft 155 kts 150°
2026-04-27 21:26 24.97259 46.67382 2148 ft 152 kts 151°
2026-04-27 21:27 24.96352 46.67939 2030 ft 139 kts 151°
2026-04-27 21:27 24.95706 46.68373 2029 ft 55 kts 148°
2026-04-27 21:27 24.95513 46.68564 2032 ft 33 kts 120°
2026-04-27 21:27 24.95505 46.68756 2035 ft 5 kts 60°
2026-04-27 21:28 24.95509 46.68765 2037 ft 4 kts 60°
2026-04-27 21:28 24.95528 46.68800 2033 ft 7 kts 60°
2026-04-27 21:28 24.95496 46.68843 2034 ft 12 kts 151°
2026-04-27 21:28 24.95403 46.68899 2036 ft 19 kts 151°
2026-04-27 21:29 24.95265 46.68987 2030 ft 26 kts 149°
2026-04-27 21:29 24.95105 46.69090 2030 ft 27 kts 150°
2026-04-27 21:29 24.94986 46.69165 2034 ft 18 kts 150°
2026-04-27 21:29 24.94872 46.69237 2037 ft 20 kts 150°
2026-04-27 21:30 24.94745 46.69316 2033 ft 22 kts 150°
2026-04-27 21:30 24.94609 46.69401 2036 ft 17 kts 150°
2026-04-27 21:30 24.94520 46.69466 2031 ft 13 kts 131°
2026-04-27 21:30 24.94533 46.69560 2034 ft 14 kts 62°
2026-04-27 21:31 24.94589 46.69668 2035 ft 18 kts 60°
2026-04-27 21:31 24.94656 46.69798 2033 ft 21 kts 60°
2026-04-27 21:31 24.94731 46.69947 2036 ft 23 kts 61°
2026-04-27 21:31 24.94791 46.70057 2031 ft 14 kts 59°
2026-04-27 21:32 24.94847 46.70159 2035 ft 17 kts 59°
2026-04-27 21:32 24.94912 46.70282 2036 ft 20 kts 60°
2026-04-27 21:32 24.94985 46.70423 2034 ft 23 kts 60°
2026-04-27 21:32 24.95068 46.70581 2035 ft 24 kts 59°
2026-04-27 21:33 24.95137 46.70712 2034 ft 21 kts 60°
2026-04-27 21:33 24.95182 46.70798 2035 ft 13 kts 62°
2026-04-27 21:33 24.95159 46.70888 2031 ft 15 kts 146°
2026-04-27 21:33 24.95062 46.70949 2035 ft 17 kts 150°
2026-04-27 21:34 24.94949 46.71021 2034 ft 20 kts 150°
2026-04-27 21:34 24.94821 46.71101 2032 ft 22 kts 150°
2026-04-27 21:34 24.94715 46.71169 2035 ft 10 kts 150°
2026-04-27 21:34 24.94644 46.71214 2037 ft 13 kts 150°
2026-04-27 21:35 24.94610 46.71235 2034 ft 0 kts 155°
2026-04-27 21:35 24.94577 46.71196 2035 ft 16 kts 238°
2026-04-27 21:35 24.94554 46.71154 2032 ft 2 kts 240°
2026-04-27 21:35 24.94552 46.71150 2032 ft 0 kts 239°